Showing default

GEESAT 2-06, 58910

Orbit data source: Space-Track

GEESAT 2-06, 58910 is a payload satellite owned by GeeSpace (CN) in LEO that was launched on Fri, 02 Feb 2024 UTC via a CHANG ZHENG 2C launch vehicle from the Xichang Space Center, China (XSC). Payload-class satellites include a variety of spacecraft equipped with specific instruments for various scientific and technological missions. These include communications satellites like Starlink; space stations such as the ISS; scientific satellites like the Hubble; Earth observation satellites from companies like Planet Labs, Umbra, and HawkEye 360; GPS; miniature CubeSats for education and research; and military/defense satellites.

Loading next visibility...
Identifier
58910, 2024-023F
Orbit
LEO
Country
Flag of CNCN / PRC
Related business
Manufacturer
GWCG
Mission
Operational Commercial Navigation
Bus & Motor
GPS100, Unknown motor
Mass
130 kg wet, 130 kg dry
Launch date (UTC)
2024-02-02 (2 years ago)
Launch vehicle
CHANG ZHENG 2C
Launch site
Xichang Space Center, China (XSC)
Object type
Payload
Rocket body
Debris
Shape & HBR
Box + 2 Pan, 1.0 m
Radar Cross Section
0.833 m², Medium (>0.1 m² and < 1m²)

Expand to show TLE details & history
Last TLE update: 8 hours ago

TLE from 8 hours ago
0 GEESAT 2-06
1 58910U 24023F   25304.24183225  .00008968  00000-0  71241-3 0  9994
2 58910  49.9889 313.1073 0006265 232.2112 127.8266 15.01058029 95212
Epoch: 2025-10-31T05:48Z
TLE epoch observation values (Epoch: 2025-10-31T05:48:14.306Z)
Latitude
-0.00006°
Longitude
-173.74144°
Altitude
566.848 km
Speed
7.578 km/s
True Right ascension
20h 52m 25s
True Declination
0° 00' 00"
Sunlit
Object was in daylight at epoch
Visualization orbit readout
Latitude
Unknown
Longitude
Unknown
Altitude
Unknown
Speed
Unknown
Apparent Right ascension
Unknown
Apparent Declination
Unknown
Sunlit
N/A
Visualization observer readout
Local Sidereal Time
09:43:21
Azimuth
Unknown
Elevation
Unknown
Doppler factor
Unknown
Orbital elements
Apogee altitude
568.748 km
Perigee altitude
560.049 km
Semi-major axis
6,942.535 km
Eccentricity
0.00063
Inclination
49.9889°
RAAN
313.1073°
Arg. of periapsis
232.2112°
True anomaly
127.88328°
Mean anomaly
127.8266°
Eccentric anomaly
127.85494°
Mean motion
3.75203 °/min
Orbital period
95.95 mins
BSTAR
0.00071241
Loading maneuver chart data...
Computing Atmospheric mass density...
Loading historical data...
Loading historical data...
Loading historical data...
Loading historical data...
Loading historical data...
Loading historical data...
Loading historical data...

Documentation

Showing up to 5 results
|